EW3867 Weather Reports


Display with metric or nautical units.
time (UTC)temp
F
wind
direction
speed
MPH
gust
MPH
rain 1hr
in
rain 24hr
in
rain mn
in
humidity
%
barometer
mb
20260902163955 74 180 0.0 0.0 0.00 0.00 0.00 41 1011.1
20260902163016 73 180 0.0 0.0 0.00 0.00 0.00 42 1011.0
20260902162022 72 180 0.0 8.0 0.00 0.00 0.00 42 1011.1
20260902161032 72 200 0.0 0.0 0.00 0.00 0.00 42 1011.2
20260902153738 70 240 1.0 9.0 0.00 0.00 0.00 43 1011.3
20260902152743 69 254 0.0 8.0 0.00 0.00 0.00 45 1011.3
20260902151719 70 5 0.0 7.0 0.00 0.00 0.00 47 1011.3
20260902150706 70 5 0.0 3.0 0.00 0.00 0.00 46 1011.4
20260902145634 69 5 0.0 0.0 0.00 0.00 0.00 45 1011.4
20260902144627 67 5 0.0 0.0 0.00 0.00 0.00 48 1011.5
20260902143646 65 5 0.0 0.0 0.00 0.00 0.00 48 1011.5
20260902142704 64 5 0.0 0.0 0.00 0.00 0.00 54 1011.6
20260902141704 62 5 0.0 0.0 0.00 0.00 0.00 57 1011.5
20260902140720 61 5 0.0 0.0 0.00 0.00 0.00 58 1011.4
20260902135739 59 5 0.0 0.0 0.00 0.00 0.00 63 1011.3
20260902133610 56 5 0.0 0.0 0.00 0.00 0.00 68 1011.3
20260902132550 55 5 0.0 0.0 0.00 0.00 0.00 72 1011.1
20260902131557 54 5 0.0 0.0 0.00 0.00 0.00 71 1011.1
20260902130539 53 5 0.0 2.0 0.00 0.00 0.00 73 1011.1
20260902125546 52 5 0.0 0.0 0.00 0.00 0.00 74 1011.0
20260902124557 53 5 0.0 0.0 0.00 0.00 0.00 73 1010.9
20260902123530 53 5 0.0 0.0 0.00 0.00 0.00 73 1010.8
20260902122538 53 5 1.0 7.0 0.00 0.00 0.00 73 1010.6
20260902120336 54 5 0.0 0.0 0.00 0.00 0.00 72 1010.6
20260902114232 54 5 0.0 0.0 0.00 0.00 0.00 70 1010.4
20260902113227 55 5 0.0 0.0 0.00 0.00 0.00 70 1010.5
20260902112202 55 5 0.0 0.0 0.00 0.00 0.00 69 1010.3
20260902111202 55 5 0.0 0.0 0.00 0.00 0.00 70 1010.4
20260902110217 55 5 0.0 0.0 0.00 0.00 0.00 68 1010.4
20260902105225 56 5 0.0 0.0 0.00 0.00 0.00 66 1010.5
20260902104234 58 5 0.0 0.0 0.00 0.00 0.00 64 1010.5
20260902103241 58 5 0.0 0.0 0.00 0.00 0.00 64 1010.5
20260902102307 58 5 0.0 0.0 0.00 0.00 0.00 62 1010.5
20260902101252 57 5 4.0 9.0 0.00 0.00 0.00 64 1010.4
20260902095140 56 340 0.0 0.0 0.00 0.00 0.00 67 1010.4
20260902094122 56 340 0.0 0.0 0.00 0.00 0.00 67 1010.4
20260902093110 56 340 0.0 0.0 0.00 0.00 0.00 68 1010.5
20260902092103 56 340 0.0 0.0 0.00 0.00 0.00 68 1010.5
20260902091052 56 340 0.0 0.0 0.00 0.00 0.00 68 1010.6
20260902090018 57 339 0.0 0.0 0.00 0.00 0.00 65 1010.8
20260902083822 58 340 0.0 0.0 0.00 0.00 0.00 68 1010.8
20260902082816 58 340 0.0 0.0 0.00 0.00 0.00 68 1010.7
20260902081831 58 340 0.0 0.0 0.00 0.00 0.00 64 1011.0
20260902080856 58 355 0.0 0.0 0.00 0.00 0.00 60 1010.8
20260902075836 59 355 0.0 0.0 0.00 0.00 0.00 59 1010.7
20260902074853 59 355 0.0 0.0 0.00 0.00 0.00 59 1010.8
20260902073848 59 355 0.0 0.0 0.00 0.00 0.00 58 1011.0
20260902072849 59 355 0.0 0.0 0.00 0.00 0.00 58 1010.9
20260902071851 60 355 0.0 0.0 0.00 0.00 0.00 56 1010.8
20260902070853 60 355 0.0 0.0 0.00 0.00 0.00 56 1010.8
20260902065827 59 355 0.0 0.0 0.00 0.00 0.00 57 1010.7
20260902064827 59 355 0.0 0.0 0.00 0.00 0.00 57 1010.8
20260902063839 59 355 0.0 0.0 0.00 0.00 0.00 57 1010.8
20260902060653 58 355 0.0 0.0 0.00 0.00 0.00 58 1010.7
20260902055710 58 355 0.0 0.0 0.00 0.00 0.00 58 1010.7
20260902054640 58 355 0.0 0.0 0.00 0.00 0.00 59 1010.8
20260902053650 58 355 0.0 0.0 0.00 0.00 0.00 58 1010.7
20260902052631 58 355 0.0 0.0 0.00 0.00 0.00 57 1010.7
20260902051608 59 355 0.0 0.0 0.00 0.00 0.00 57 1010.7
20260902050535 59 355 0.0 0.0 0.00 0.00 0.00 55 1010.7
20260902045553 60 355 6.0 9.0 0.00 0.00 0.00 53 1010.6
20260902044553 60 355 6.0 9.0 0.00 0.00 0.00 53 1010.6
20260902042353 60 355 4.0 9.0 0.00 0.00 0.00 54 1010.6
20260902041413 60 355 0.0 4.0 0.00 0.00 0.00 55 1010.5
20260902040420 60 355 0.0 1.0 0.00 0.00 0.00 55 1010.5
20260902035358 61 355 1.0 5.0 0.00 0.00 0.00 52 1010.3
20260902034356 62 355 1.0 7.0 0.00 0.00 0.00 50 1010.3
20260902032227 64 355 7.0 10.0 0.00 0.00 0.00 47 1010.1
20260902031202 63 355 3.0 9.0 0.00 0.00 0.00 48 1010.0
20260902030227 64 346 0.0 0.0 0.00 0.00 0.00 48 1009.8
20260902025205 64 346 1.0 8.0 0.00 0.00 0.00 47 1009.8
20260902023004 66 345 1.0 9.0 0.00 0.00 0.00 45 1009.7
20260902022024 67 340 1.0 0.0 0.00 0.00 0.00 43 1009.7
20260902021021 67 340 0.0 1.0 0.00 0.00 0.00 42 1009.6
20260902020039 68 339 0.0 4.0 0.00 0.00 0.00 41 1009.7
20260902015006 69 339 0.0 1.0 0.00 0.00 0.00 40 1009.7
20260902013938 70 335 0.0 0.0 0.00 0.00 0.00 38 1009.6
20260902012944 71 333 0.0 9.0 0.00 0.00 0.00 37 1009.7
20260902011918 72 334 1.0 8.0 0.00 0.00 0.00 35 1009.8
20260902010928 73 334 3.0 13.0 0.00 0.00 0.00 34 1009.8
20260902005938 73 0 4.0 12.0 0.00 0.00 0.00 34 1009.8
20260902004937 75 331 3.0 11.0 0.00 0.00 0.00 32 1009.8
20260902003958 76 0 1.0 9.0 0.00 0.00 0.00 31 1009.8
20260902002934 77 272 1.0 11.0 0.00 0.00 0.00 31 1009.9
20260902001902 77 0 4.0 0.0 0.00 0.00 0.00 28 1009.8
20260902000914 77 261 4.0 12.0 0.00 0.00 0.00 29 1009.7
20260901235905 77 0 4.0 12.0 0.00 0.00 0.00 29 1009.8
20260901194048 75 227 1.0 1.0 0.00 0.04 0.00 46 1013.0
20260901193110 74 222 0.0 0.0 0.00 0.04 0.00 45 1013.2
20260901192048 74 221 0.0 0.0 0.00 0.04 0.00 46 1013.4
20260901191022 75 222 0.0 0.0 0.00 0.05 0.00 47 1013.6
20260901190024 75 222 1.0 5.0 0.00 0.09 0.00 46 1013.8
20260901183948 75 230 3.0 0.0 0.00 0.13 0.00 48 1014.0
20260901181755 72 0 0.0 0.0 0.00 0.14 0.00 45 1014.1
20260901175644 72 0 0.0 1.0 0.00 0.15 0.00 46 1014.4
20260901174624 72 0 0.0 0.0 0.00 0.17 0.00 48 1014.6
20260901173611 72 0 0.0 0.0 0.00 0.17 0.00 52 1014.6
20260901170309 71 13 0.0 0.0 0.00 0.17 0.00 53 1014.9